Regional Weather Roundup
Issued by NWS

Home | Current Version | Previous Version | Text Only | Print | Product List | Glossary Off
Versions: 1 2 3 4 5 6 7 8 9 10 11 12 13 14 15 16 17 18 19 20 21 22 23 24 25 26 27 28 29 30 31 32 33 34 35 36 37 38 39 40 41 42 43 44 45 46 47 48 49 50

246
ASUS45 KBOU 291107
RWRCO

WEATHER ROUNDUP FOR COLORADO
NATIONAL WEATHER SERVICE DENVER/BOULDER CO
500 AM MDT SAT APR 29 2017

NOTE: "FAIR" INDICATES FEW OR NO CLOUDS BELOW 12000 FEET WITH NO
SIGNIFICANT WEATHER AND/OR OBSTRUCTIONS TO VISIBILITY.

COZ001>005-013-030-031-291200-
...NORTHWEST COLORADO...

CITY           SKY/WX    TMP DP  RH WIND       PRES   REMARKS
CRAIG          CLOUDY    34  18  52 E8        29.98R WCI  27
HAYDEN         FAIR      30  16  55 SE9       29.97R WCI  22
MEEKER         CLOUDY    33  25  72 NE13      29.92R WCI  24
MOUNT WERNER   NOT AVBL
STEAMBOAT SPGS CLOUDY    30  17  60 NW7       29.95S WCI  23
WALDEN           N/A     21  10  63 NE17G23   30.00S WCI   7
$$

COZ006>008-011-291200-
...WEST CENTRAL VALLEYS...

CITY           SKY/WX    TMP DP  RH WIND       PRES   REMARKS
GRAND JUNCTION CLOUDY    39  33  79 CALM      29.89R
MONTROSE       LGT SNOW  32  32 100 N3        29.90R VSB 1
EAGLE          FAIR      31  14  49 CALM      29.96R
RIFLE          MOCLDY    35  30  82 CALM      29.91R
DELTA          LGT RAIN  36  35  96 E3        29.90R
NUCLA          CLOUDY    34  30  86 NW6       29.91R WCI  29
$$

COZ017>023-064>068-291200-
...SOUTHWEST COLORADO...

CITY           SKY/WX    TMP DP  RH WIND       PRES   REMARKS
DURANGO        CLOUDY    28  24  85 E5        29.82R WCI  23
CORTEZ         FAIR      26  25  96 CALM      29.86R
PAGOSA SPRINGS LGT SNOW  29  28  96 SW5       29.84R VSB 1   WCI  23
TELLURIDE      LGT SNOW  24  23  97 W6        29.85R WCI  17
WOLF CREEK PAS SNOW      12  12 100 N3        29.87R VSB 1/2
$$

COZ009-010-012-014-032>034-037-058>063-291200-
...CENTRAL COLORADO...

CITY           SKY/WX    TMP DP  RH WIND       PRES   REMARKS
ASPEN          FAIR      23  16  74 SW5       29.88R WCI  17
BUENA VISTA    LGT SNOW  24  19  83 SW5       29.99R WCI  18
COPPER MTN     CLOUDY    12   5  73 MISG      29.88S
BERTHOUD PASS  SNOW       3  -8  60 E21G32    29.88F VSB 1/2 WCI -18
COTTONWOOD PAS LGT SNOW  19  18  93 SE9       29.95R WCI   9
GUNNISON       FAIR      27  16  63 VRB6      29.87R WCI  20
KREMMLING      CLOUDY    30  21  69 NE6       29.99S WCI  24
LEADVILLE      FAIR      12   9  87 S6        29.91R WCI   3
SALIDA         CLOUDY    26  23  87 N5        30.05R WCI  20
SUNLIGHT       CLOUDY    12  10  92 NE8       29.91R WCI   1
WILKERSON PASS CLOUDY    10   7  85 NE9G18    29.93F WCI  -2
$$

COZ069>075-291200-
...SAN LUIS VALLEY/SANGRE DE CRISTO MOUNTAINS...

CITY           SKY/WX    TMP DP  RH WIND       PRES   REMARKS
ALAMOSA        CLOUDY    29  17  61 E17G25    29.84R WCI  17
LA VETA PASS   CLOUDY    16  12  86 MISG      29.99R VSB 1/4
SAGUACHE       CLOUDY    30  10  43 NE10G22   29.86R WCI  21
$$

COZ035-036-038>040-291200-
...NORTHERN COLORADO FRONT RANGE...

CITY           SKY/WX    TMP DP  RH WIND       PRES   REMARKS
DENVER INTL AP LGT SNOW  29  27  92 N12       30.08F FOG     WCI  19
DMNS CITY PARK   N/A     29  29  99 NE10G17   30.10R WCI  20
AURORA         FLURRIES  28  28  99 N13       30.06F WCI  17
FRONT RANGE AP LGT SNOW  32  30  93 NE14      30.08F WCI  22
ERIE MUNI ARPT LGT SNOW  31  30  96 N8        30.11F WCI  23
BOULDER MUN AP LGT SNOW  30  30 100 N9        30.11F WCI  22
CENTENNIAL     FLURRIES  27  26  96 N13       30.05F WCI  16
BROOMFIELD     LGT SNOW  30  30 100 N10       30.10F WCI  21
FORT COLLINS   FLURRIES  31  28  89 N6        30.13S WCI  25
LONGMONT       LGT SNOW  33  31  94 N7        30.14F WCI  26
$$

COZ041-046-047-076>085-087-088-291200-
...PIKES PEAK/PALMER DIVIDE AND SOUTHERN FOOTHILLS...

CITY           SKY/WX    TMP DP  RH WIND       PRES   REMARKS
COLO. SPRINGS  FLURRIES  30  24  78 N15       30.01S WCI  19
A. F. ACADEMY  LGT SNOW  26  23  90 N14       30.00R FOG     WCI  14
SCHRIEVER AFB  FLURRIES  26  24  91 N14       30.01R WCI  15
ELLICOTT       LGT SNOW N/A N/A N/A NE20      29.99R
FALCON         LGT SNOW  25  23  91 N16G23    30.00R WCI  12
FORT CARSON    NOT AVBL
LIMON          CLOUDY    28  27  96 N17       30.04R WCI  16
MONUMENT HILL  CLOUDY    23  21  93 N18       30.02R WCI   9
TRINIDAD       SNOW      29  26  89 N15       30.01R VSB 1/2 WCI  18
$$

COZ042>045-048>051-090-091-291200-
...NORTHEAST COLORADO...

CITY           SKY/WX    TMP DP  RH WIND       PRES   REMARKS
GREELEY ARPT   NOT AVBL
AKRON          CLOUDY    31  28  89 N12       30.09R WCI  22
BURLINGTON     NOT AVBL
WRAY           NOT AVBL
STERLING       CLOUDY    34  32  93 N13       30.10R WCI  25
HOLYOKE        CLOUDY    37  32  81 N12       30.09R
FORT MORGAN    CLOUDY    32  30  92 N10       30.09F WCI  24
$$

COZ086-089-092>099-291200-
...SOUTHEAST COLORADO...

CITY           SKY/WX    TMP DP  RH WIND       PRES   REMARKS
PUEBLO           N/A    N/A N/A N/A MISG      30.04R
LA JUNTA       LGT SNOW  33  31  92 NE15      30.02R VSB 1   WCI  23
LAMAR          LGT SNOW  33  31  92 NE13      29.97R VSB 3/4 WCI  24
SPRINGFIELD      N/A     30  30 100 N14       29.95R WCI  19
$$




USA.gov is the U.S. government's official web portal to all federal, state and local government web resources and services.